Weather History for Hastings, NE

Change the Weather History Date:

Saturday, January 11, 2014

  Actual Average Record
Temperature  
Mean Temperature 39 °F 26 °F  
Max Temperature 51 °F 36 °F 76 °F (1990)
Min Temperature 27 °F 16 °F -23 °F (1918)
Degree Days  
Heating Degree Days 26 39  
Month to date heating degree days 479 433  
Since 1 July heating degree days 2997 2873  
Cooling Degree Days 0 0  
Month to date cooling degree days 0 0  
Year to date cooling degree days 0 0  
Moisture  
Dew Point 25 °F    
Average Humidity 60    
Maximum Humidity 84    
Minimum Humidity 35    
Precipitation  
Precipitation 0.00 in 0.02 in 0.75 in (1905)
Month to date precipitation 0.17 0.09  
Year to date precipitation 0.17 0.09  
Snow  
Snow 0.00 in 0.20 in 8.00 in (1905)
Month to date snowfall 2.1 1.9  
Since 1 July snowfall 7.5 11.8  
Snow Depth 0.00 in    
Sea Level Pressure  
Sea Level Pressure 29.81 in    
Wind  
Wind Speed 12 mph (West)    
Max Wind Speed 24 mph    
Max Gust Speed 29 mph    
Visibility 10 miles    
Events      
T = Trace of Precipitation, MM = Missing Value Source: NWS Daily Summary

Daily Weather History Graph

Daily Weather History Graph

Search for Another Location

Airport:

Trip Planner

Search our weather history database for the weather conditions in past years. The results will help you decide how hot, cold, wet, or windy it might be!

Date:

Astronomy

Jan. 11, 2014 Rise Set
Actual Time 7:56 AM CST 5:27 PM CST
Civil Twilight 7:26 AM CST 5:57 PM CST
Nautical Twilight 6:52 AM CST 6:31 PM CST
Astronomical Twilight 6:19 AM CST 7:04 PM CST
Moon 2:12 PM CST (1/11) 4:02 AM CST (1/11)
Length of Visible Light 10h 31m
Length of Day
9h 30m
Waxing Gibbous, 83% of the Moon is Illuminated
Jan 11
Waxing Gibbous
Jan 15
Full
Jan 23
Last Quarter
Jan 30
New
Feb 6
First Quarter

Hourly Weather History & Observations

Time (CST) Temp. Windchill Dew Point Humidity Pressure Visibility Wind Dir Wind Speed Gust Speed Precip Events Conditions
12:53 AM 27.0 °F 18.0 °F 23.0 °F 85% 29.74 in 10.0 mi West 9.2 mph - N/A   Clear
1:53 AM 28.0 °F 19.3 °F 21.9 °F 78% 29.74 in 10.0 mi West 9.2 mph - N/A   Clear
2:53 AM 30.0 °F 21.1 °F 23.0 °F 75% 29.74 in 10.0 mi West 10.4 mph - N/A   Overcast
3:53 AM 30.0 °F 19.5 °F 23.0 °F 75% 29.75 in 10.0 mi WNW 13.8 mph - N/A   Overcast
4:53 AM 30.9 °F 20.2 °F 24.1 °F 76% 29.77 in 10.0 mi WNW 15.0 mph - N/A   Overcast
5:53 AM 32.0 °F 21.6 °F 24.1 °F 73% 29.80 in 10.0 mi WNW 15.0 mph - N/A   Overcast
6:53 AM 33.1 °F 23.0 °F 25.0 °F 72% 29.82 in 10.0 mi WNW 15.0 mph - N/A   Clear
7:53 AM 32.0 °F 22.1 °F 25.0 °F 75% 29.84 in 10.0 mi WNW 13.8 mph - N/A   Clear
8:53 AM 32.0 °F 22.5 °F 25.0 °F 75% 29.87 in 10.0 mi WNW 12.7 mph - N/A   Clear
9:53 AM 37.0 °F 27.4 °F 28.0 °F 70% 29.90 in 10.0 mi WNW 17.3 mph - N/A   Clear
10:53 AM 41.0 °F 32.5 °F 28.9 °F 62% 29.90 in 10.0 mi NW 17.3 mph - N/A   Clear
11:53 AM 45.0 °F 37.6 °F 28.9 °F 53% 29.90 in 10.0 mi NW 17.3 mph - N/A   Clear
12:53 PM 46.9 °F - 27.0 °F 46% 29.88 in 10.0 mi WNW 17.3 mph - N/A   Clear
1:53 PM 50.0 °F - 27.0 °F 41% 29.86 in 10.0 mi WNW 12.7 mph - N/A   Clear
2:53 PM 50.0 °F - 27.0 °F 41% 29.85 in 10.0 mi WNW 12.7 mph - N/A   Clear
3:53 PM 51.1 °F - 24.1 °F 35% 29.83 in 10.0 mi WNW 10.4 mph - N/A   Clear
4:53 PM 48.0 °F - 25.0 °F 41% 29.84 in 10.0 mi SW 6.9 mph - N/A   Clear
5:53 PM 44.1 °F 40.8 °F 25.0 °F 47% 29.83 in 10.0 mi South 5.8 mph - N/A   Unknown
6:53 PM 39.9 °F 34.5 °F 25.0 °F 55% 29.81 in 10.0 mi South 8.1 mph - N/A   Clear
7:53 PM 39.0 °F 32.8 °F 24.1 °F 55% 29.79 in 10.0 mi South 9.2 mph - N/A   Clear
8:53 PM 39.0 °F 32.3 °F 24.1 °F 55% 29.77 in 10.0 mi South 10.4 mph - N/A   Clear
9:53 PM 39.9 °F 32.5 °F 23.0 °F 51% 29.74 in 10.0 mi SSW 12.7 mph - N/A   Clear
10:53 PM 39.0 °F 32.3 °F 23.0 °F 53% 29.71 in 10.0 mi SSW 10.4 mph - N/A   Clear
11:53 PM 37.9 °F 31.5 °F 24.1 °F 57% 29.68 in 10.0 mi South 9.2 mph - N/A   Clear